FW6471 Weather Reports


Display with metric or nautical units.
time (UTC)temp
F
wind
direction
speed
MPH
gust
MPH
rain 1hr
in
rain 24hr
in
rain mn
in
humidity
%
barometer
mb
20260507175613 92 148 2.0 6.0 0.00 0.00 0.00 33 1016.6
20260507174613 92 186 4.0 9.0 0.00 0.00 0.00 34 1016.7
20260507174113 92 178 2.0 8.0 0.00 0.00 0.00 37 1016.7
20260507173613 92 163 2.0 6.0 0.00 0.00 0.00 39 1016.8
20260507173113 92 320 3.0 7.0 0.00 0.00 0.00 41 1016.9
20260507172613 92 181 2.0 5.0 0.00 0.00 0.00 42 1016.9
20260507172113 92 285 3.0 13.0 0.00 0.00 0.00 42 1016.9
20260507171113 92 323 1.0 3.0 0.00 0.00 0.00 45 1016.9
20260507170613 91 340 2.0 3.0 0.00 0.00 0.00 47 1016.8
20260507165613 90 181 3.0 9.0 0.00 0.00 0.00 50 1016.8
20260507165113 90 222 2.0 8.0 0.00 0.00 0.00 48 1016.9
20260507164613 90 214 2.0 6.0 0.00 0.00 0.00 51 1016.9
20260507164113 90 139 2.0 7.0 0.00 0.00 0.00 50 1016.9
20260507163113 90 126 3.0 7.0 0.00 0.00 0.00 49 1017.0
20260507162613 90 135 3.0 7.0 0.00 0.00 0.00 48 1017.1
20260507162113 90 255 2.0 5.0 0.00 0.00 0.00 46 1017.1
20260507161613 89 163 2.0 6.0 0.00 0.00 0.00 44 1017.1
20260507161113 89 163 3.0 9.0 0.00 0.00 0.00 44 1017.1
20260507160118 90 166 3.0 7.0 0.00 0.00 0.00 39 1017.3
20260507155614 89 338 1.0 5.0 0.00 0.00 0.00 42 1017.3
20260507155112 88 178 2.0 8.0 0.00 0.00 0.00 44 1017.4
20260507154613 88 170 3.0 7.0 0.00 0.00 0.00 46 1017.5
20260507154113 88 139 3.0 7.0 0.00 0.00 0.00 44 1017.7
20260507153614 88 165 2.0 5.0 0.00 0.00 0.00 45 1017.7
20260507153113 88 223 2.0 7.0 0.00 0.00 0.00 43 1017.7
20260507152112 88 211 3.0 7.0 0.00 0.00 0.00 41 1017.7
20260507151613 88 226 2.0 7.0 0.00 0.00 0.00 41 1017.8
20260507151113 87 198 2.0 3.0 0.00 0.00 0.00 41 1017.8
20260507150613 86 219 2.0 7.0 0.00 0.00 0.00 39 1017.8
20260507145613 85 152 5.0 8.0 0.00 0.00 0.00 43 1017.8
20260507145112 85 197 3.0 6.0 0.00 0.00 0.00 46 1017.8
20260507144614 85 154 3.0 8.0 0.00 0.00 0.00 44 1017.7
20260507144113 85 144 3.0 6.0 0.00 0.00 0.00 50 1017.7
20260507143613 84 220 2.0 5.0 0.00 0.00 0.00 52 1017.7
20260507143113 84 148 3.0 8.0 0.00 0.00 0.00 53 1017.6
20260507142614 84 188 2.0 6.0 0.00 0.00 0.00 56 1017.7
20260507142112 83 165 3.0 6.0 0.00 0.00 0.00 57 1017.6
20260507141113 82 154 4.0 9.0 0.00 0.00 0.00 60 1017.6
20260507140612 82 167 2.0 3.0 0.00 0.00 0.00 64 1017.6
20260507140119 81 196 3.0 5.0 0.00 0.00 0.00 67 1017.6
20260507135112 80 199 2.0 6.0 0.00 0.00 0.00 70 1017.6
20260507134613 80 143 2.0 5.0 0.00 0.00 0.00 72 1017.7
20260507134113 79 154 3.0 6.0 0.00 0.00 0.00 73 1017.8
20260507133613 79 167 3.0 6.0 0.00 0.00 0.00 74 1017.8
20260507133113 78 131 3.0 6.0 0.00 0.00 0.00 76 1017.7
20260507132613 77 203 3.0 6.0 0.00 0.00 0.00 77 1017.7
20260507132113 77 148 1.0 3.0 0.00 0.00 0.00 79 1017.7
20260507131613 76 162 2.0 3.0 0.00 0.00 0.00 82 1017.6
20260507131114 75 227 1.0 3.0 0.00 0.00 0.00 84 1017.6
20260507130613 75 178 2.0 3.0 0.00 0.00 0.00 85 1017.5
20260507130119 74 199 0.0 2.0 0.00 0.00 0.00 86 1017.5
20260507125114 73 166 1.0 3.0 0.00 0.00 0.00 87 1017.4
20260507124612 72 169 1.0 5.0 0.00 0.00 0.00 89 1017.3
20260507124113 72 168 2.0 3.0 0.00 0.00 0.00 90 1017.1
20260507123613 71 173 1.0 5.0 0.00 0.00 0.00 91 1017.1
20260507122612 70 156 1.0 5.0 0.00 0.00 0.00 94 1017.2
20260507122113 70 181 1.0 2.0 0.00 0.00 0.00 95 1017.3
20260507121613 69 182 1.0 3.0 0.00 0.00 0.00 94 1017.2
20260507120613 69 210 1.0 2.0 0.00 0.00 0.00 95 1017.1
20260507120119 69 215 1.0 3.0 0.00 0.00 0.00 95 1017.1
20260507115613 68 217 1.0 2.0 0.00 0.00 0.00 95 1017.1
20260507114612 68 293 0.0 1.0 0.00 0.00 0.00 95 1017.2
20260507114113 68 293 0.0 1.0 0.00 0.00 0.00 95 1017.1
20260507113613 68 293 0.0 1.0 0.00 0.00 0.00 95 1017.0
20260507113112 67 293 0.0 1.0 0.00 0.00 0.00 94 1017.0
20260507112613 67 293 0.0 1.0 0.00 0.00 0.00 95 1016.9
20260507112114 67 293 1.0 2.0 0.00 0.00 0.00 94 1017.0
20260507111612 67 293 0.0 1.0 0.00 0.00 0.00 94 1016.9
20260507111112 67 293 0.0 2.0 0.00 0.00 0.00 94 1016.8
20260507110613 67 293 1.0 1.0 0.00 0.00 0.00 95 1016.7
20260507110119 66 293 0.0 0.0 0.00 0.00 0.00 94 1016.7
20260507105612 66 293 0.0 1.0 0.00 0.00 0.00 94 1016.7
20260507104612 66 293 0.0 0.0 0.00 0.00 0.00 94 1016.6
20260507104113 66 293 0.0 0.0 0.00 0.00 0.00 94 1016.6
20260507103613 66 293 0.0 1.0 0.00 0.00 0.00 94 1016.6
20260507103112 66 293 0.0 0.0 0.00 0.00 0.00 94 1016.6
20260507102612 66 293 0.0 0.0 0.00 0.00 0.00 94 1016.6
20260507102113 67 293 0.0 0.0 0.00 0.00 0.00 94 1016.7
20260507101613 67 293 0.0 0.0 0.00 0.00 0.00 94 1016.7
20260507101112 67 293 0.0 0.0 0.00 0.00 0.00 94 1016.6
20260507100613 67 293 0.0 0.0 0.00 0.00 0.00 94 1016.6
20260507100120 67 293 0.0 0.0 0.00 0.00 0.00 94 1016.5
20260507095612 67 293 0.0 0.0 0.00 0.00 0.00 94 1016.4
20260507095112 67 293 0.0 0.0 0.00 0.00 0.00 94 1016.5
20260507094614 67 293 0.0 0.0 0.00 0.00 0.00 93 1016.4
20260507094112 67 293 0.0 0.0 0.00 0.00 0.00 94 1016.3
20260507093612 67 293 0.0 0.0 0.00 0.00 0.00 94 1016.2
20260507092613 67 293 0.0 0.0 0.00 0.00 0.00 94 1016.1
20260507092112 67 293 0.0 0.0 0.00 0.00 0.00 93 1016.1
20260507091612 67 293 0.0 0.0 0.00 0.00 0.00 94 1016.1
20260507090613 67 293 0.0 0.0 0.00 0.00 0.00 93 1016.0
20260507090119 67 293 0.0 0.0 0.00 0.00 0.00 93 1016.1
20260507085612 67 293 0.0 0.0 0.00 0.00 0.00 93 1016.1
20260507085112 67 293 0.0 0.0 0.00 0.00 0.00 93 1016.2
20260507084612 67 293 0.0 0.0 0.00 0.00 0.00 93 1016.2
20260507084112 68 293 0.0 0.0 0.00 0.00 0.00 93 1016.3
20260507083612 68 293 0.0 0.0 0.00 0.00 0.00 93 1016.4
20260507083112 68 293 0.0 0.0 0.00 0.00 0.00 93 1016.4
20260507082612 68 293 0.0 0.0 0.00 0.00 0.00 93 1016.4
20260507082113 68 293 0.0 0.0 0.00 0.00 0.00 93 1016.3
20260507081612 68 293 0.0 0.0 0.00 0.00 0.00 93 1016.2
20260507081112 68 293 0.0 2.0 0.00 0.00 0.00 93 1016.2
20260507080612 68 293 0.0 1.0 0.00 0.00 0.00 93 1016.0
20260507075612 68 293 0.0 0.0 0.00 0.00 0.00 93 1015.8
20260507075113 68 293 0.0 0.0 0.00 0.00 0.00 93 1015.8
20260507074612 68 293 0.0 0.0 0.00 0.00 0.00 93 1015.7
20260507074112 68 293 0.0 0.0 0.00 0.00 0.00 93 1015.8
20260507073612 68 293 0.0 0.0 0.00 0.00 0.00 93 1015.9
20260507073112 68 293 0.0 0.0 0.00 0.00 0.00 93 1015.9
20260507072612 69 293 0.0 0.0 0.00 0.00 0.00 93 1015.9
20260507072112 69 293 0.0 0.0 0.00 0.00 0.00 93 1016.0
20260507071612 69 293 0.0 0.0 0.00 0.00 0.00 93 1016.0
20260507070118 69 293 0.0 0.0 0.00 0.00 0.00 92 1016.4
20260507065112 69 293 0.0 0.0 0.00 0.00 0.00 92 1016.5
20260507064612 69 293 0.0 0.0 0.00 0.00 0.00 92 1016.6
20260507064112 70 293 0.0 0.0 0.00 0.00 0.00 92 1016.6
20260507063612 70 293 0.0 1.0 0.00 0.00 0.00 92 1016.5
20260507063112 70 293 0.0 0.0 0.00 0.00 0.00 92 1016.6
20260507062613 70 293 0.0 0.0 0.00 0.00 0.00 92 1016.5
20260507062112 70 293 0.0 0.0 0.00 0.00 0.00 92 1016.6
20260507061612 70 293 0.0 0.0 0.00 0.00 0.00 92 1016.7
20260507061112 70 293 0.0 0.0 0.00 0.00 0.00 92 1016.6
20260507060612 71 293 0.0 1.0 0.00 0.00 0.00 92 1016.6
20260507060118 70 293 0.0 0.0 0.00 0.00 0.00 92 1016.7
20260507055612 71 293 0.0 0.0 0.00 0.00 0.00 92 1016.8
20260507055112 71 293 0.0 0.0 0.00 0.00 0.00 92 1016.9
20260507054612 71 293 0.0 0.0 0.00 0.00 0.00 92 1017.0
20260507054112 71 293 0.0 1.0 0.00 0.00 0.00 91 1017.1
20260507053612 71 293 0.0 1.0 0.00 0.00 0.00 92 1017.1
20260507053112 71 293 0.0 0.0 0.00 0.00 0.00 91 1017.0
20260507052612 71 293 0.0 0.0 0.00 0.00 0.00 91 1017.1
20260507052112 72 293 0.0 0.0 0.00 0.00 0.00 91 1017.1
20260507051612 72 293 0.0 0.0 0.00 0.00 0.00 91 1017.3
20260507051112 72 293 0.0 0.0 0.00 0.00 0.00 91 1017.2
20260507050612 72 293 0.0 10.0 0.00 0.00 0.00 91 1017.2
20260507050118 72 293 0.0 0.0 0.00 0.00 0.00 91 1017.3
20260507045611 72 293 0.0 0.0 0.00 0.00 0.00 91 1017.3
20260507045112 72 293 0.0 0.0 0.00 0.00 0.00 91 1017.5
20260507044612 73 293 0.0 0.0 0.00 0.00 0.00 91 1017.4
20260507044112 73 293 0.0 1.0 0.00 0.00 0.00 91 1017.4
20260507043611 73 293 0.0 0.0 0.00 0.00 0.00 91 1017.5
20260507043112 73 293 0.0 0.0 0.00 0.00 0.00 91 1017.6
20260507042612 73 293 0.0 0.0 0.00 0.00 0.00 91 1017.7
20260507042112 73 293 0.0 0.0 0.00 0.00 0.00 91 1017.8
20260507041612 73 293 0.0 0.0 0.00 0.00 0.00 90 1017.8
20260507041112 73 293 0.0 0.0 0.00 0.00 0.00 90 1017.9
20260507040612 73 293 0.0 1.0 0.00 0.00 0.00 90 1017.9
20260507040118 74 293 0.0 0.0 0.00 0.00 0.00 91 1017.8
20260507035113 74 293 0.0 0.0 0.00 0.00 0.00 91 1017.7
20260507034612 73 293 0.0 0.0 0.00 0.00 0.00 91 1017.7
20260507034112 73 293 0.0 0.0 0.00 0.00 0.00 90 1017.8
20260507033612 73 293 0.0 0.0 0.00 0.00 0.00 90 1017.7
20260507033112 73 293 0.0 1.0 0.00 0.00 0.00 90 1017.9
20260507032612 73 293 0.0 0.0 0.00 0.00 0.00 90 1018.0
20260507032112 74 293 0.0 0.0 0.00 0.00 0.00 90 1017.8
20260507031612 74 293 0.0 0.0 0.00 0.00 0.00 89 1017.9
20260507030612 74 293 0.0 0.0 0.00 0.00 0.00 88 1017.6
20260507030118 75 293 0.0 0.0 0.00 0.00 0.00 88 1017.6
20260507025611 75 293 0.0 0.0 0.00 0.00 0.00 88 1017.6
20260507025112 75 293 0.0 0.0 0.00 0.00 0.00 88 1017.7
20260507024612 75 293 0.0 0.0 0.00 0.00 0.00 87 1017.7
20260507024112 76 293 0.0 0.0 0.00 0.00 0.00 87 1017.5
20260507023112 76 293 0.0 0.0 0.00 0.00 0.00 86 1017.4
20260507022612 76 293 0.0 0.0 0.00 0.00 0.00 86 1017.5
20260507022111 76 293 1.0 2.0 0.00 0.00 0.00 86 1017.5
20260507021611 76 293 0.0 3.0 0.00 0.00 0.00 86 1017.4
20260507021112 76 322 2.0 3.0 0.00 0.00 0.00 86 1017.4
20260507020612 77 317 1.0 3.0 0.00 0.00 0.00 86 1017.3
20260507020118 77 320 1.0 2.0 0.00 0.00 0.00 85 1017.3
20260507015612 77 317 0.0 1.0 0.00 0.00 0.00 85 1017.3
20260507014612 77 323 1.0 3.0 0.00 0.00 0.00 84 1017.2
20260507014112 77 336 2.0 3.0 0.00 0.00 0.00 84 1017.2
20260507013612 78 305 0.0 3.0 0.00 0.00 0.00 84 1017.0
20260507013112 78 328 2.0 5.0 0.00 0.00 0.00 83 1017.0
20260507012612 78 323 1.0 3.0 0.00 0.00 0.00 83 1017.1
20260507012111 78 309 2.0 5.0 0.00 0.00 0.00 83 1017.0
20260507011611 78 326 0.0 3.0 0.00 0.00 0.00 82 1017.0
20260507011112 79 323 2.0 3.0 0.00 0.00 0.00 82 1017.0
20260507010612 79 325 2.0 3.0 0.00 0.00 0.00 81 1017.0
20260507010118 79 324 2.0 5.0 0.00 0.00 0.00 81 1016.9
20260507005612 80 316 2.0 5.0 0.00 0.00 0.00 80 1017.0
20260507005112 80 331 1.0 3.0 0.00 0.00 0.00 80 1017.0
20260507004611 80 331 2.0 3.0 0.00 0.00 0.00 79 1016.9
20260507004112 80 317 2.0 6.0 0.00 0.00 0.00 79 1016.7
20260507003612 80 317 2.0 7.0 0.00 0.00 0.00 78 1016.7
20260507003112 81 296 2.0 7.0 0.00 0.00 0.00 78 1016.6
20260507002612 81 323 1.0 5.0 0.00 0.00 0.00 77 1016.6
20260507002112 81 326 2.0 3.0 0.00 0.00 0.00 77 1016.6
20260507001611 81 299 3.0 7.0 0.00 0.00 0.00 76 1016.4
20260507001112 82 334 2.0 6.0 0.00 0.00 0.00 76 1016.4
20260507000117 82 320 3.0 7.0 0.00 0.00 0.00 76 1016.4
20260506235612 83 318 3.0 7.0 0.00 0.00 0.00 75 1016.3
20260506235111 83 322 2.0 7.0 0.00 0.00 0.00 75 1016.3
20260506234611 83 317 4.0 7.0 0.00 0.00 0.00 74 1016.3
20260506234112 84 310 3.0 7.0 0.00 0.00 0.00 74 1016.3
20260506233612 84 320 2.0 7.0 0.00 0.00 0.00 74 1016.3
20260506233112 84 300 4.0 7.0 0.00 0.00 0.00 73 1016.2
20260506232612 85 314 3.0 8.0 0.00 0.00 0.00 73 1016.1
20260506232111 85 325 2.0 6.0 0.00 0.00 0.00 72 1016.2
20260506231611 85 320 4.0 8.0 0.00 0.00 0.00 72 1016.1
20260506231111 85 323 5.0 9.0 0.00 0.00 0.00 71 1016.1
20260506230612 86 312 2.0 7.0 0.00 0.00 0.00 70 1016.1
20260506230117 86 320 3.0 10.0 0.00 0.00 0.00 70 1016.0
20260506225611 86 312 4.0 9.0 0.00 0.00 0.00 69 1015.9
20260506225111 87 322 4.0 8.0 0.00 0.00 0.00 68 1015.9
20260506224611 88 305 5.0 10.0 0.00 0.00 0.00 66 1015.8
20260506224111 89 302 4.0 9.0 0.00 0.00 0.00 64 1015.7
20260506223612 90 326 3.0 7.0 0.00 0.00 0.00 62 1015.7
20260506223112 90 304 2.0 5.0 0.00 0.00 0.00 57 1015.7
20260506222612 90 180 0.0 0.0 0.00 0.00 0.00 49 1015.7
20260506222111 91 180 0.0 0.0 0.00 0.00 0.00 50 1015.7
20260506221611 91 180 0.0 0.0 0.00 0.00 0.00 49 1015.8
20260506221111 91 180 0.0 0.0 0.00 0.00 0.00 48 1015.9
20260506215611 91 180 0.0 0.0 0.00 0.00 0.00 48 1015.8
20260506215112 91 180 0.0 0.0 0.00 0.00 0.00 47 1015.8
20260506214612 92 180 0.0 0.0 0.00 0.00 0.00 47 1015.9
20260506212611 92 181 1.0 2.0 0.00 0.00 0.00 45 1016.0
20260506212112 92 181 0.0 3.0 0.00 0.00 0.00 44 1016.0
20260506211611 93 185 2.0 5.0 0.00 0.00 0.00 44 1016.1
20260506211111 93 315 1.0 3.0 0.00 0.00 0.00 43 1016.0
20260506210611 93 314 1.0 3.0 0.00 0.00 0.00 42 1016.0
20260506210117 94 326 2.0 5.0 0.00 0.00 0.00 43 1015.9
20260506205611 94 301 1.0 3.0 0.00 0.00 0.00 43 1015.9
20260506205111 94 305 1.0 2.0 0.00 0.00 0.00 43 1015.9
20260506204612 94 337 2.0 3.0 0.00 0.00 0.00 42 1015.9
20260506204111 94 271 2.0 3.0 0.00 0.00 0.00 43 1015.9
20260506203611 94 179 2.0 3.0 0.00 0.00 0.00 43 1016.0
20260506203112 94 149 1.0 7.0 0.00 0.00 0.00 42 1016.0
20260506202612 94 140 3.0 6.0 0.00 0.00 0.00 43 1016.0
20260506201111 94 147 2.0 3.0 0.00 0.00 0.00 42 1016.2
20260506200118 94 271 2.0 5.0 0.00 0.00 0.00 43 1016.1
20260506195611 94 323 3.0 5.0 0.00 0.00 0.00 42 1016.1
20260506194612 95 174 2.0 5.0 0.00 0.00 0.00 42 1016.2
20260506194111 95 315 1.0 3.0 0.00 0.00 0.00 43 1016.2
20260506193611 94 334 2.0 7.0 0.00 0.00 0.00 40 1016.2
20260506193111 94 112 2.0 3.0 0.00 0.00 0.00 43 1016.3
20260506192612 94 225 1.0 3.0 0.00 0.00 0.00 42 1016.4
20260506192112 94 145 4.0 6.0 0.00 0.00 0.00 43 1016.6
20260506191611 94 240 2.0 9.0 0.00 0.00 0.00 44 1016.6
20260506191112 94 140 1.0 5.0 0.00 0.00 0.00 43 1016.7
20260506190611 93 136 2.0 5.0 0.00 0.00 0.00 44 1016.7
20260506190117 92 152 1.0 3.0 0.00 0.00 0.00 45 1016.8
20260506185611 92 184 4.0 9.0 0.00 0.00 0.00 44 1017.0
20260506185111 93 166 2.0 6.0 0.00 0.00 0.00 44 1017.0
20260506184111 93 124 3.0 8.0 0.00 0.00 0.00 44 1017.1
20260506183611 93 169 2.0 5.0 0.00 0.00 0.00 46 1017.2
20260506183111 92 156 3.0 5.0 0.00 0.00 0.00 47 1017.2
20260506182611 92 115 1.0 3.0 0.00 0.00 0.00 45 1017.3
20260506182111 92 136 3.0 6.0 0.00 0.00 0.00 46 1017.4
20260506181611 91 99 2.0 7.0 0.00 0.00 0.00 47 1017.4
20260506181111 91 164 5.0 9.0 0.00 0.00 0.00 48 1017.4